Station Historical Data
Daily Summary for June 6, 2012 Units:  Metric    English   Both
« Previous Day
Next Day »
Daily Weekly Monthly Yearly Custom
  High: Low: Average:
Temperature: 24.7 °C 14.3 °C 20 °C
Dew Point: 15.1 °C 11.7 °C 13.2 °C
Humidity: 84% 46% 66%
Wind Speed: 19.3km/h 0km/h 5.5km/h
Wind Gust: 24.1km/h - -
Wind- - SE
Pressure: 1014.1 hPa 1009.4 hPa -
Precipitation: 0 mm    
Historical Graphs
 
 
Tabular Data for June 6, 2012
Time Temperature Dew Point Pressure Wind Wind Speed Wind Gust Humidity Rainfall Rate (Hourly) Conditions
00:00 18.4 °C 13.4 °C 1009.7 hPa NNE 3.2 km/h 3.2 km/h 73% 0 mm
00:01 18.3 °C 13.4 °C 1009.7 hPa NNE 3.2 km/h 4.8 km/h 73% 0 mm
00:06 18.2 °C 13.3 °C 1009.7 hPa NE 3.2 km/h 4.8 km/h 73% 0 mm
00:11 18.2 °C 13.3 °C 1009.7 hPa North 4.8 km/h 4.8 km/h 73% 0 mm
00:16 18.1 °C 13.2 °C 1009.7 hPa North 3.2 km/h 4.8 km/h 73% 0 mm
00:21 18.1 °C 13.2 °C 1009.7 hPa NNE 3.2 km/h 8 km/h 73% 0 mm
00:26 18.1 °C 13.2 °C 1009.7 hPa NNW 4.8 km/h 6.4 km/h 73% 0 mm
00:31 18.1 °C 13.2 °C 1009.7 hPa NNE 3.2 km/h 6.4 km/h 73% 0 mm
00:36 18.1 °C 12.9 °C 1009.7 hPa NNE 4.8 km/h 6.4 km/h 72% 0 mm
00:41 18 °C 12.9 °C 1009.7 hPa NNE 6.4 km/h 8 km/h 72% 0 mm
00:46 17.9 °C 12.8 °C 1009.7 hPa NE 4.8 km/h 6.4 km/h 72% 0 mm
00:51 17.9 °C 12.8 °C 1009.7 hPa NE 3.2 km/h 3.2 km/h 72% 0 mm
00:56 17.8 °C 12.7 °C 1009.7 hPa NE 3.2 km/h 6.4 km/h 72% 0 mm
01:01 17.8 °C 12.7 °C 1009.7 hPa NE 3.2 km/h 8 km/h 72% 0 mm
01:06 17.7 °C 12.6 °C 1009.7 hPa NE 3.2 km/h 4.8 km/h 72% 0 mm
01:11 17.7 °C 12.6 °C 1009.7 hPa NE 1.6 km/h 4.8 km/h 72% 0 mm
01:16 17.7 °C 12.6 °C 1009.7 hPa North 3.2 km/h 6.4 km/h 72% 0 mm
01:21 17.6 °C 12.5 °C 1009.7 hPa NE 1.6 km/h 3.2 km/h 72% 0 mm
01:26 17.4 °C 12.6 °C 1009.7 hPa NNE 6.4 km/h 6.4 km/h 73% 0 mm
01:31 17.4 °C 12.5 °C 1009.4 hPa NE 1.6 km/h 3.2 km/h 73% 0 mm
01:36 17.3 °C 12.4 °C 1009.4 hPa NE 1.6 km/h 4.8 km/h 73% 0 mm
01:42 17.2 °C 12.5 °C 1009.4 hPa NNE 1.6 km/h 1.6 km/h 74% 0 mm
01:47 17.1 °C 12.4 °C 1009.4 hPa North 3.2 km/h 4.8 km/h 74% 0 mm
01:52 17 °C 12.6 °C 1009.4 hPa Calm   4.8 km/h 75% 0 mm
01:57 16.9 °C 12.4 °C 1009.4 hPa NE 1.6 km/h 4.8 km/h 75% 0 mm
02:02 16.8 °C 12.4 °C 1009.4 hPa North 4.8 km/h 8 km/h 75% 0 mm
02:07 16.9 °C 12.4 °C 1009.4 hPa NNE 6.4 km/h 8 km/h 75% 0 mm
02:13 16.8 °C 12.4 °C 1009.4 hPa NNE 1.6 km/h 3.2 km/h 75% 0 mm
02:18 16.7 °C 12.3 °C 1009.4 hPa Calm   3.2 km/h 75% 0 mm
02:23 16.7 °C 12.4 °C 1009.4 hPa NNE 1.6 km/h 3.2 km/h 76% 0 mm
02:28 16.6 °C 12.3 °C 1009.4 hPa Calm   1.6 km/h 76% 0 mm
02:33 16.4 °C 12.2 °C 1009.4 hPa NNE 3.2 km/h 3.2 km/h 76% 0 mm
02:38 16.3 °C 12.3 °C 1009.4 hPa Calm   3.2 km/h 77% 0 mm
02:43 16.3 °C 12.2 °C 1009.4 hPa NNE 1.6 km/h 3.2 km/h 77% 0 mm
02:48 16.2 °C 12.3 °C 1009.4 hPa North 3.2 km/h 3.2 km/h 78% 0 mm
02:53 16.1 °C 12.3 °C 1009.4 hPa NNE 1.6 km/h 3.2 km/h 78% 0 mm
02:58 16 °C 12.4 °C 1009.4 hPa North 3.2 km/h 3.2 km/h 79% 0 mm
03:03 15.9 °C 12.3 °C 1009.4 hPa North 1.6 km/h 4.8 km/h 79% 0 mm
03:08 15.9 °C 12.1 °C 1009.4 hPa NE 1.6 km/h 3.2 km/h 78% 0 mm
03:13 15.9 °C 12.1 °C 1009.4 hPa NE 3.2 km/h 4.8 km/h 78% 0 mm
03:18 16 °C 12.2 °C 1009.4 hPa North 1.6 km/h 6.4 km/h 78% 0 mm
03:23 15.9 °C 12.1 °C 1009.4 hPa NE 1.6 km/h 3.2 km/h 78% 0 mm
03:28 15.9 °C 12.1 °C 1009.4 hPa NNW 1.6 km/h 4.8 km/h 78% 0 mm
03:33 15.8 °C 12.2 °C 1009.4 hPa North 4.8 km/h 6.4 km/h 79% 0 mm
03:38 15.7 °C 12.1 °C 1009.4 hPa NNW 4.8 km/h 6.4 km/h 79% 0 mm
03:43 15.5 °C 12.1 °C 1009.4 hPa NNW 1.6 km/h 6.4 km/h 80% 0 mm
03:48 15.5 °C 12.1 °C 1009.4 hPa North 3.2 km/h 4.8 km/h 80% 0 mm
03:53 15.6 °C 12.1 °C 1009.4 hPa NNE 4.8 km/h 6.4 km/h 80% 0 mm
03:59 15.6 °C 12 °C 1009.4 hPa NE 3.2 km/h 4.8 km/h 79% 0 mm
04:04 15.8 °C 12.2 °C 1009.4 hPa North 3.2 km/h 9.7 km/h 79% 0 mm
04:09 15.8 °C 12 °C 1009.4 hPa NNW 4.8 km/h 6.4 km/h 78% 0 mm
04:14 15.8 °C 12.2 °C 1009.4 hPa North 3.2 km/h 6.4 km/h 79% 0 mm
04:19 15.8 °C 12.2 °C 1009.4 hPa North 1.6 km/h 6.4 km/h 79% 0 mm
04:24 15.8 °C 12.2 °C 1009.4 hPa North 1.6 km/h 4.8 km/h 79% 0 mm
04:29 15.7 °C 12.1 °C 1009.4 hPa NNW 4.8 km/h 6.4 km/h 79% 0 mm
04:34 15.7 °C 12.1 °C 1009.4 hPa NNE 1.6 km/h 8 km/h 79% 0 mm
04:39 15.6 °C 12 °C 1009.4 hPa NNE 1.6 km/h 4.8 km/h 79% 0 mm
04:44 15.6 °C 11.9 °C 1009.7 hPa NNE 1.6 km/h 3.2 km/h 79% 0 mm
04:49 15.5 °C 11.9 °C 1009.7 hPa North 1.6 km/h 6.4 km/h 79% 0 mm
04:54 15.4 °C 11.8 °C 1009.7 hPa NNE 1.6 km/h 4.8 km/h 79% 0 mm
04:59 15.3 °C 11.9 °C 1009.7 hPa NE 1.6 km/h 3.2 km/h 80% 0 mm
05:04 15.2 °C 11.8 °C 1009.7 hPa NNE 1.6 km/h 3.2 km/h 80% 0 mm
05:09 15.2 °C 11.8 °C 1009.7 hPa NNE 1.6 km/h 3.2 km/h 80% 0 mm
05:14 15.2 °C 11.7 °C 1009.7 hPa NNE 1.6 km/h 4.8 km/h 80% 0 mm
05:19 15.1 °C 11.9 °C 1009.7 hPa North 3.2 km/h 4.8 km/h 81% 0 mm
05:24 15.1 °C 11.9 °C 1009.7 hPa North 3.2 km/h 4.8 km/h 81% 0 mm
05:29 15.1 °C 11.8 °C 1009.7 hPa NNW 1.6 km/h 3.2 km/h 81% 0 mm
05:35 15.1 °C 11.8 °C 1009.7 hPa NNE 3.2 km/h 4.8 km/h 81% 0 mm
05:40 15 °C 11.8 °C 1010 hPa Calm   3.2 km/h 81% 0 mm
05:45 14.9 °C 11.8 °C 1009.7 hPa North 1.6 km/h 4.8 km/h 82% 0 mm
05:50 14.8 °C 11.8 °C 1010 hPa NNE 3.2 km/h 4.8 km/h 82% 0 mm
05:55 14.8 °C 11.7 °C 1010 hPa NE 3.2 km/h 4.8 km/h 82% 0 mm
06:00 14.7 °C 11.8 °C 1010 hPa NE 3.2 km/h 4.8 km/h 83% 0 mm
06:05 14.6 °C 11.8 °C 1010 hPa NNE 1.6 km/h 4.8 km/h 83% 0 mm
06:10 14.5 °C 11.7 °C 1010 hPa NNE 3.2 km/h 4.8 km/h 83% 0 mm
06:15 14.5 °C 11.8 °C 1010 hPa NNE 3.2 km/h 8 km/h 84% 0 mm
06:20 14.5 °C 11.8 °C 1010 hPa North 4.8 km/h 4.8 km/h 84% 0 mm
06:25 14.4 °C 11.8 °C 1010 hPa ENE 6.4 km/h 6.4 km/h 84% 0 mm
06:30 14.4 °C 11.8 °C 1010 hPa NNE 3.2 km/h 4.8 km/h 84% 0 mm
06:35 14.4 °C 11.7 °C 1010 hPa NNE 3.2 km/h 6.4 km/h 84% 0 mm
06:40 14.4 °C 11.7 °C 1010 hPa NNE 1.6 km/h 9.7 km/h 84% 0 mm
06:46 14.3 °C 11.7 °C 1010 hPa NE 3.2 km/h 4.8 km/h 84% 0 mm
06:51 14.4 °C 11.7 °C 1010 hPa NE 4.8 km/h 4.8 km/h 84% 0 mm
06:56 14.4 °C 11.7 °C 1010 hPa NNE 3.2 km/h 4.8 km/h 84% 0 mm
07:01 14.4 °C 11.8 °C 1010.4 hPa NNE 3.2 km/h 6.4 km/h 84% 0 mm
07:06 14.8 °C 12.1 °C 1010.4 hPa NE 3.2 km/h 4.8 km/h 84% 0 mm
07:11 15.1 °C 12.1 °C 1010.4 hPa NE 3.2 km/h 4.8 km/h 82% 0 mm
07:16 15.3 °C 12.1 °C 1010.4 hPa NNE 1.6 km/h 4.8 km/h 81% 0 mm
07:21 15.7 °C 12.2 °C 1010.4 hPa NNE 3.2 km/h 3.2 km/h 80% 0 mm
07:26 15.9 °C 12.4 °C 1010.4 hPa Calm   3.2 km/h 80% 0 mm
07:31 16.2 °C 12.7 °C 1010.4 hPa NE 3.2 km/h 3.2 km/h 80% 0 mm
07:36 16.4 °C 12.8 °C 1010.7 hPa Calm   3.2 km/h 79% 0 mm
07:41 16.6 °C 12.7 °C 1010.7 hPa NNE 4.8 km/h 4.8 km/h 78% 0 mm
07:46 16.7 °C 12.8 °C 1011.1 hPa NNE 1.6 km/h 4.8 km/h 78% 0 mm
07:51 16.8 °C 12.9 °C 1010.7 hPa North 3.2 km/h 4.8 km/h 78% 0 mm
07:56 16.9 °C 13.1 °C 1011.1 hPa NE 4.8 km/h 4.8 km/h 78% 0 mm
08:01 17.1 °C 13.2 °C 1011.1 hPa NNE 1.6 km/h 6.4 km/h 78% 0 mm
08:06 17.2 °C 13.3 °C 1011.1 hPa NNE 3.2 km/h 8 km/h 78% 0 mm
08:11 17.2 °C 13.2 °C 1011.1 hPa NNE 4.8 km/h 11.3 km/h 77% 0 mm
08:16 17.3 °C 13.4 °C 1011.4 hPa NNE 8 km/h 9.7 km/h 78% 0 mm
08:21 17.3 °C 13.4 °C 1011.4 hPa North 8 km/h 14.5 km/h 78% 0 mm
08:26 17.4 °C 13.5 °C 1011.1 hPa NNW 3.2 km/h 14.5 km/h 78% 0 mm
08:31 17.6 °C 13.6 °C 1011.4 hPa NNE 4.8 km/h 12.9 km/h 77% 0 mm
08:36 17.8 °C 13.8 °C 1011.4 hPa NNW 4.8 km/h 9.7 km/h 77% 0 mm
08:41 17.9 °C 13.7 °C 1011.4 hPa NE 6.4 km/h 11.3 km/h 76% 0 mm
08:47 18 °C 13.7 °C 1011.4 hPa NE 12.9 km/h 12.9 km/h 76% 0 mm
08:52 18.2 °C 13.9 °C 1011.4 hPa NNE 9.7 km/h 12.9 km/h 76% 0 mm
08:57 18.4 °C 14.6 °C 1011.4 hPa NNE 8 km/h 9.7 km/h 78% 0 mm
09:02 18.7 °C 14.2 °C 1011.4 hPa NE 3.2 km/h 19.3 km/h 75% 0 mm
09:07 18.9 °C 14.4 °C 1011.7 hPa ENE 9.7 km/h 12.9 km/h 75% 0 mm
09:12 19.1 °C 14.1 °C 1011.7 hPa NNE 8 km/h 12.9 km/h 73% 0 mm
09:17 19.2 °C 14.2 °C 1011.7 hPa NW 6.4 km/h 11.3 km/h 73% 0 mm
09:23 19.6 °C 14.4 °C 1011.7 hPa NW 3.2 km/h 11.3 km/h 72% 0 mm
09:28 19.7 °C 14.6 °C 1011.7 hPa North 8 km/h 11.3 km/h 72% 0 mm
09:33 20 °C 14.4 °C 1011.7 hPa NNE 11.3 km/h 14.5 km/h 70% 0 mm
09:38 20.1 °C 14.3 °C 1011.7 hPa East 9.7 km/h 14.5 km/h 69% 0 mm
09:43 20.2 °C 14.1 °C 1011.7 hPa NNE 14.5 km/h 14.5 km/h 68% 0 mm
09:48 20.4 °C 14.5 °C 1011.7 hPa North 8 km/h 11.3 km/h 69% 0 mm
09:53 20.6 °C 14.7 °C 1011.7 hPa North 6.4 km/h 12.9 km/h 69% 0 mm
09:58 20.7 °C 14.6 °C 1012.1 hPa NE 6.4 km/h 9.7 km/h 68% 0 mm
10:03 21 °C 15.1 °C 1012.1 hPa NNW 4.8 km/h 11.3 km/h 69% 0 mm
10:08 21.2 °C 14.4 °C 1012.1 hPa NNE 9.7 km/h 11.3 km/h 65% 0 mm
10:13 21.2 °C 13.8 °C 1012.1 hPa NNE 6.4 km/h 14.5 km/h 63% 0 mm
10:18 21.3 °C 14.7 °C 1012.1 hPa North 8 km/h 12.9 km/h 66% 0 mm
10:23 21.4 °C 14.8 °C 1012.1 hPa NNE 4.8 km/h 14.5 km/h 66% 0 mm
10:28 21.4 °C 14.1 °C 1012.1 hPa NW 9.7 km/h 16.1 km/h 63% 0 mm
10:33 21.5 °C 14.4 °C 1012.1 hPa ENE 6.4 km/h 14.5 km/h 64% 0 mm
10:38 21.7 °C 14.1 °C 1012.1 hPa NNE 9.7 km/h 14.5 km/h 62% 0 mm
10:43 21.8 °C 14.2 °C 1012.4 hPa NE 14.5 km/h 17.7 km/h 62% 0 mm
10:48 21.8 °C 14 °C 1012.1 hPa NNE 11.3 km/h 16.1 km/h 61% 0 mm
10:53 21.9 °C 14.3 °C 1012.4 hPa NNW 8 km/h 14.5 km/h 62% 0 mm
10:58 22.1 °C 14.5 °C 1012.4 hPa NNW 12.9 km/h 14.5 km/h 62% 0 mm
11:03 22.1 °C 14 °C 1012.1 hPa North 9.7 km/h 17.7 km/h 60% 0 mm
11:08 22.3 °C 14.2 °C 1012.1 hPa North 9.7 km/h 19.3 km/h 60% 0 mm
11:13 22.3 °C 13.9 °C 1012.1 hPa NNE 11.3 km/h 14.5 km/h 59% 0 mm
11:18 22.6 °C 14.7 °C 1012.1 hPa NNW 14.5 km/h 14.5 km/h 61% 0 mm
11:23 22.7 °C 14 °C 1012.1 hPa NNE 4.8 km/h 19.3 km/h 58% 0 mm
11:28 22.6 °C 13.9 °C 1012.1 hPa NE 9.7 km/h 16.1 km/h 58% 0 mm
11:33 22.8 °C 13.8 °C 1012.1 hPa North 11.3 km/h 16.1 km/h 57% 0 mm
11:38 22.7 °C 14.5 °C 1012.1 hPa North 11.3 km/h 16.1 km/h 60% 0 mm
11:43 22.9 °C 13.9 °C 1012.1 hPa NW 14.5 km/h 16.1 km/h 57% 0 mm
11:48 22.9 °C 13.7 °C 1012.1 hPa North 17.7 km/h 17.7 km/h 56% 0 mm
11:53 22.9 °C 14 °C 1012.1 hPa NW 12.9 km/h 17.7 km/h 57% 0 mm
11:59 23 °C 12.9 °C 1012.1 hPa NW 6.4 km/h 22.5 km/h 53% 0 mm
12:04 23.1 °C 13.6 °C 1012.1 hPa North 14.5 km/h 14.5 km/h 55% 0 mm
12:09 23.1 °C 12.7 °C 1012.1 hPa NNE 8 km/h 17.7 km/h 52% 0 mm
12:14 23.2 °C 13.3 °C 1012.1 hPa NNE 8 km/h 16.1 km/h 54% 0 mm
12:19 23.3 °C 13.2 °C 1012.1 hPa NNE 8 km/h 16.1 km/h 53% 0 mm
12:24 23.4 °C 13.8 °C 1012.1 hPa East 11.3 km/h 16.1 km/h 55% 0 mm
12:29 23.4 °C 13.8 °C 1012.1 hPa NNW 12.9 km/h 14.5 km/h 55% 0 mm
12:30 23.4 °C 13.1 °C 1012.1 hPa North 12.9 km/h 19.3 km/h 52% 0 mm
12:31 23.4 °C 13.6 °C 1012.1 hPa NNW 17.7 km/h 19.3 km/h 54% 0 mm
12:36 23.3 °C 12.9 °C 1012.1 hPa North 6.4 km/h 19.3 km/h 52% 0 mm
12:41 23.4 °C 12.4 °C 1012.1 hPa North 19.3 km/h 19.3 km/h 50% 0 mm
12:46 23.3 °C 12.9 °C 1012.1 hPa North 8 km/h 20.9 km/h 52% 0 mm
12:51 23.5 °C 12.8 °C 1012.1 hPa North 11.3 km/h 20.9 km/h 51% 0 mm
12:56 23.5 °C 11.9 °C 1012.1 hPa NNE 9.7 km/h 19.3 km/h 48% 0 mm
13:01 23.6 °C 12.9 °C 1012.4 hPa NNW 6.4 km/h 19.3 km/h 51% 0 mm
13:06 23.6 °C 12.9 °C 1012.1 hPa NNW 12.9 km/h 24.1 km/h 51% 0 mm
13:11 23.6 °C 12.6 °C 1012.1 hPa NNW 8 km/h 17.7 km/h 50% 0 mm
13:16 23.6 °C 12.2 °C 1012.1 hPa NNE 8 km/h 19.3 km/h 49% 0 mm
13:21 23.4 °C 13.6 °C 1012.1 hPa NNW 6.4 km/h 19.3 km/h 54% 0 mm
13:26 23.6 °C 13.2 °C 1011.7 hPa North 11.3 km/h 14.5 km/h 52% 0 mm
13:31 23.6 °C 13.5 °C 1011.7 hPa NNE 14.5 km/h 17.7 km/h 53% 0 mm
13:36 23.8 °C 14.8 °C 1011.7 hPa North 14.5 km/h 19.3 km/h 57% 0 mm
13:41 23.7 °C 12.9 °C 1012.1 hPa NNW 8 km/h 19.3 km/h 51% 0 mm
13:46 23.8 °C 13.1 °C 1012.1 hPa NNW 19.3 km/h 20.9 km/h 51% 0 mm
13:51 23.6 °C 12.6 °C 1012.1 hPa NNE 4.8 km/h 12.9 km/h 50% 0 mm
13:56 23.8 °C 12.8 °C 1012.1 hPa NE 9.7 km/h 14.5 km/h 50% 0 mm
14:01 24 °C 12.9 °C 1012.1 hPa NE 11.3 km/h 16.1 km/h 50% 0 mm
14:06 23.9 °C 12.9 °C 1012.1 hPa North 14.5 km/h 20.9 km/h 50% 0 mm
14:11 24 °C 13.6 °C 1012.1 hPa North 12.9 km/h 17.7 km/h 52% 0 mm
14:16 24.2 °C 12.8 °C 1011.7 hPa NNW 12.9 km/h 22.5 km/h 49% 0 mm
14:21 24.2 °C 13.4 °C 1012.1 hPa NW 12.9 km/h 16.1 km/h 51% 0 mm
14:26 24.2 °C 12.8 °C 1012.1 hPa NW 9.7 km/h 17.7 km/h 49% 0 mm
14:31 24.3 °C 14.1 °C 1012.1 hPa NNW 11.3 km/h 19.3 km/h 53% 0 mm
14:36 24.2 °C 13.1 °C 1011.7 hPa North 6.4 km/h 6.4 km/h 50% 0 mm
14:41 24.2 °C 13.2 °C 1011.7 hPa NNW 16.1 km/h 20.9 km/h 50% 0 mm
14:46 24.2 °C 14.1 °C 1011.7 hPa NNW 8 km/h 16.1 km/h 53% 0 mm
14:51 24.2 °C 12.8 °C 1011.7 hPa ESE 3.2 km/h 14.5 km/h 49% 0 mm
14:56 24.2 °C 12.8 °C 1011.7 hPa NNE 12.9 km/h 12.9 km/h 49% 0 mm
15:01 24.3 °C 14.4 °C 1011.7 hPa ENE 1.6 km/h 11.3 km/h 54% 0 mm
15:06 24.7 °C 14.4 °C 1011.7 hPa ENE 3.2 km/h 11.3 km/h 53% 0 mm
15:12 24.7 °C 12.3 °C 1011.7 hPa East 8 km/h 16.1 km/h 46% 0 mm
15:17 24.5 °C 12.4 °C 1011.4 hPa East 3.2 km/h 12.9 km/h 47% 0 mm
15:22 24.6 °C 13.8 °C 1011.4 hPa NE 14.5 km/h 14.5 km/h 51% 0 mm
15:27 24.3 °C 13.5 °C 1011.7 hPa North 3.2 km/h 14.5 km/h 51% 0 mm
15:32 24.3 °C 13.8 °C 1011.7 hPa NNW 17.7 km/h 24.1 km/h 52% 0 mm
15:37 24.3 °C 13.8 °C 1011.7 hPa NNW 6.4 km/h 14.5 km/h 52% 0 mm
15:42 24.5 °C 13.4 °C 1011.7 hPa North 4.8 km/h 14.5 km/h 50% 0 mm
15:47 24.2 °C 13.4 °C 1011.7 hPa NW 6.4 km/h 11.3 km/h 51% 0 mm
15:52 24.3 °C 12.9 °C 1011.7 hPa North 3.2 km/h 11.3 km/h 49% 0 mm
15:57 24.5 °C 14.6 °C 1011.7 hPa NE 9.7 km/h 14.5 km/h 54% 0 mm
16:02 24.6 °C 13.4 °C 1011.7 hPa NNW 8 km/h 12.9 km/h 50% 0 mm
16:07 24.3 °C 13.3 °C 1011.7 hPa NE 4.8 km/h 11.3 km/h 50% 0 mm
16:12 24.6 °C 14.1 °C 1011.7 hPa NE 8 km/h 9.7 km/h 52% 0 mm
16:17 24.4 °C 12.7 °C 1011.7 hPa NE 8 km/h 16.1 km/h 48% 0 mm
16:22 24.3 °C 13.8 °C 1011.7 hPa NE 9.7 km/h 12.9 km/h 52% 0 mm
16:27 23.8 °C 13.1 °C 1011.7 hPa NE 4.8 km/h 12.9 km/h 51% 0 mm
16:32 24 °C 13.2 °C 1011.7 hPa NE 9.7 km/h 14.5 km/h 51% 0 mm
16:37 24.3 °C 13.8 °C 1011.7 hPa NNE 14.5 km/h 16.1 km/h 52% 0 mm
16:42 24.4 °C 13.9 °C 1011.7 hPa NE 6.4 km/h 14.5 km/h 52% 0 mm
16:47 24.1 °C 13.6 °C 1011.7 hPa North 3.2 km/h 12.9 km/h 52% 0 mm
16:53 24.2 °C 13.7 °C 1011.7 hPa NW 3.2 km/h 9.7 km/h 52% 0 mm
16:58 24.4 °C 13 °C 1011.7 hPa NE 4.8 km/h 14.5 km/h 49% 0 mm
17:03 24 °C 12.9 °C 1012.1 hPa NE 3.2 km/h 8 km/h 50% 0 mm
17:08 24.1 °C 13 °C 1011.7 hPa Calm   4.8 km/h 50% 0 mm
17:13 23.9 °C 12.8 °C 1011.7 hPa NNE 9.7 km/h 12.9 km/h 50% 0 mm
17:18 23.8 °C 13.3 °C 1012.1 hPa North 3.2 km/h 8 km/h 52% 0 mm
17:23 24.2 °C 13.2 °C 1011.7 hPa ENE 6.4 km/h 9.7 km/h 50% 0 mm
17:28 24.4 °C 13.6 °C 1011.7 hPa NNE 6.4 km/h 11.3 km/h 51% 0 mm
17:33 24.6 °C 14.1 °C 1012.1 hPa NE 3.2 km/h 12.9 km/h 52% 0 mm
17:38 24.7 °C 13.6 °C 1011.7 hPa NNW 6.4 km/h 14.5 km/h 50% 0 mm
17:43 24.7 °C 14.2 °C 1012.1 hPa North 4.8 km/h 11.3 km/h 52% 0 mm
17:48 24.7 °C 13.9 °C 1012.1 hPa NNW 6.4 km/h 11.3 km/h 51% 0 mm
17:53 24.6 °C 13.8 °C 1011.7 hPa NE 9.7 km/h 11.3 km/h 51% 0 mm
17:59 24.6 °C 13.2 °C 1012.1 hPa NNE 6.4 km/h 11.3 km/h 49% 0 mm
18:04 24.7 °C 13.6 °C 1011.7 hPa North 11.3 km/h 16.1 km/h 50% 0 mm
18:09 24.7 °C 13.2 °C 1011.7 hPa ENE 6.4 km/h 9.7 km/h 49% 0 mm
18:14 24.7 °C 14.2 °C 1011.7 hPa NE 6.4 km/h 11.3 km/h 52% 0 mm
18:19 24.7 °C 13.9 °C 1011.7 hPa NNW 9.7 km/h 12.9 km/h 51% 0 mm
18:24 24.6 °C 13.4 °C 1012.1 hPa NNE 16.1 km/h 16.1 km/h 50% 0 mm
18:29 24.6 °C 14.3 °C 1011.7 hPa NNE 9.7 km/h 14.5 km/h 53% 0 mm
18:34 24.4 °C 13.3 °C 1011.7 hPa NNE 8 km/h 17.7 km/h 50% 0 mm
18:40 24.6 °C 13.8 °C 1012.1 hPa NE 8 km/h 11.3 km/h 51% 0 mm
18:45 24.5 °C 13.4 °C 1012.1 hPa NNW 6.4 km/h 9.7 km/h 50% 0 mm
18:50 24.4 °C 13.3 °C 1011.7 hPa North 6.4 km/h 11.3 km/h 50% 0 mm
18:55 24.3 °C 13.6 °C 1011.7 hPa NNE 6.4 km/h 16.1 km/h 51% 0 mm
19:00 24.3 °C 13.6 °C 1012.1 hPa NE 6.4 km/h 11.3 km/h 51% 0 mm
19:05 24.2 °C 14 °C 1012.1 hPa NNE 1.6 km/h 11.3 km/h 53% 0 mm
19:10 24.2 °C 13.2 °C 1012.1 hPa NNW 4.8 km/h 11.3 km/h 50% 0 mm
19:15 24.2 °C 13.4 °C 1012.1 hPa NNE 6.4 km/h 11.3 km/h 51% 0 mm
19:20 24.3 °C 13.5 °C 1012.1 hPa NW 4.8 km/h 6.4 km/h 51% 0 mm
19:25 24.2 °C 14 °C 1012.1 hPa North 4.8 km/h 9.7 km/h 53% 0 mm
19:30 24.1 °C 13.3 °C 1012.1 hPa North 8 km/h 11.3 km/h 51% 0 mm
19:35 24.1 °C 13.9 °C 1012.1 hPa NNW 4.8 km/h 8 km/h 53% 0 mm
19:40 23.9 °C 12.8 °C 1012.1 hPa NNW 6.4 km/h 12.9 km/h 50% 0 mm
19:45 23.8 °C 13.1 °C 1012.4 hPa NNE 6.4 km/h 8 km/h 51% 0 mm
19:50 23.6 °C 13.8 °C 1012.4 hPa NNE 6.4 km/h 11.3 km/h 54% 0 mm
19:55 23.4 °C 13.6 °C 1012.4 hPa NNW 4.8 km/h 8 km/h 54% 0 mm
20:00 23 °C 13.5 °C 1012.4 hPa NNE 3.2 km/h 6.4 km/h 55% 0 mm
20:05 22.9 °C 13.7 °C 1012.4 hPa North 6.4 km/h 6.4 km/h 56% 0 mm
20:10 22.9 °C 13.9 °C 1012.4 hPa NNE 4.8 km/h 6.4 km/h 57% 0 mm
20:15 22.7 °C 13.8 °C 1012.4 hPa North 4.8 km/h 6.4 km/h 57% 0 mm
20:20 22.7 °C 14.1 °C 1012.4 hPa NNE 1.6 km/h 4.8 km/h 58% 0 mm
20:25 22.7 °C 14 °C 1012.4 hPa North 1.6 km/h 3.2 km/h 58% 0 mm
20:30 22.6 °C 14.2 °C 1012.1 hPa North 1.6 km/h 6.4 km/h 59% 0 mm
20:36 22.3 °C 13.9 °C 1012.4 hPa Calm   3.2 km/h 59% 0 mm
20:41 22.1 °C 14 °C 1012.1 hPa North 1.6 km/h 4.8 km/h 60% 0 mm
20:46 21.8 °C 13.9 °C 1012.1 hPa North 1.6 km/h 3.2 km/h 61% 0 mm
20:51 21.4 °C 13.9 °C 1012.1 hPa North 1.6 km/h 3.2 km/h 62% 0 mm
20:56 21.1 °C 13.6 °C 1012.1 hPa North 1.6 km/h 1.6 km/h 62% 0 mm
21:01 20.8 °C 13.7 °C 1012.4 hPa Calm   1.6 km/h 64% 0 mm
21:06 20.4 °C 13.7 °C 1012.1 hPa North 1.6 km/h 3.2 km/h 65% 0 mm
21:11 20.2 °C 13.4 °C 1012.4 hPa NNW 3.2 km/h 3.2 km/h 65% 0 mm
21:16 20 °C 13.4 °C 1012.4 hPa North 1.6 km/h 3.2 km/h 66% 0 mm
21:21 19.7 °C 13.6 °C 1012.4 hPa North 3.2 km/h 3.2 km/h 68% 0 mm
21:26 19.4 °C 13.6 °C 1012.4 hPa North 3.2 km/h 3.2 km/h 69% 0 mm
21:31 19.2 °C 13.6 °C 1012.4 hPa NNE 3.2 km/h 3.2 km/h 70% 0 mm
21:36 19 °C 13.4 °C 1012.4 hPa NNW 3.2 km/h 4.8 km/h 70% 0 mm
21:41 18.9 °C 13.3 °C 1012.4 hPa NNW 3.2 km/h 3.2 km/h 70% 0 mm
21:46 18.7 °C 13.3 °C 1012.4 hPa NNW 1.6 km/h 3.2 km/h 71% 0 mm
21:51 18.7 °C 13.5 °C 1012.4 hPa NNW 1.6 km/h 3.2 km/h 72% 0 mm
21:56 18.6 °C 13.6 °C 1012.4 hPa NNW 1.6 km/h 3.2 km/h 73% 0 mm
22:01 18.5 °C 13.3 °C 1012.8 hPa NNW 1.6 km/h 3.2 km/h 72% 0 mm
22:06 18.4 °C 13.3 °C 1012.8 hPa Calm   1.6 km/h 72% 0 mm
22:11 18.3 °C 13.4 °C 1012.8 hPa North 1.6 km/h 3.2 km/h 73% 0 mm
22:16 18.2 °C 13.3 °C 1012.8 hPa North 1.6 km/h 3.2 km/h 73% 0 mm
22:21 18.1 °C 13.4 °C 1013.1 hPa North 1.6 km/h 1.6 km/h 74% 0 mm
22:26 18.1 °C 13.3 °C 1013.1 hPa North 3.2 km/h 4.8 km/h 74% 0 mm
22:31 18 °C 13.3 °C 1013.1 hPa NNE 1.6 km/h 3.2 km/h 74% 0 mm
22:36 17.9 °C 13.4 °C 1013.1 hPa NNE 1.6 km/h 4.8 km/h 75% 0 mm
22:41 17.9 °C 13.4 °C 1013.1 hPa NNE 1.6 km/h 3.2 km/h 75% 0 mm
22:46 17.8 °C 13.5 °C 1013.4 hPa Calm   3.2 km/h 76% 0 mm
22:51 17.7 °C 13.4 °C 1013.4 hPa NNE 1.6 km/h 4.8 km/h 76% 0 mm
22:56 17.7 °C 13.4 °C 1013.8 hPa Calm   1.6 km/h 76% 0 mm
23:01 17.7 °C 13.4 °C 1013.8 hPa North 1.6 km/h 3.2 km/h 76% 0 mm
23:06 17.7 °C 13.4 °C 1013.8 hPa NNE 1.6 km/h 3.2 km/h 76% 0 mm
23:11 17.7 °C 13.4 °C 1013.8 hPa NNE 1.6 km/h 4.8 km/h 76% 0 mm
23:16 17.6 °C 13.3 °C 1013.8 hPa North 1.6 km/h 1.6 km/h 76% 0 mm
23:22 17.5 °C 13.2 °C 1014.1 hPa North 1.6 km/h 3.2 km/h 76% 0 mm
23:27 17.4 °C 13.2 °C 1014.1 hPa Calm   3.2 km/h 76% 0 mm
23:32 17.4 °C 13.2 °C 1014.1 hPa NNW 3.2 km/h 3.2 km/h 76% 0 mm
23:37 17.4 °C 13.2 °C 1014.1 hPa NNE 1.6 km/h 3.2 km/h 76% 0 mm
23:43 17.4 °C 13.1 °C 1014.1 hPa North 3.2 km/h 3.2 km/h 76% 0 mm
23:48 17.3 °C 13.3 °C 1014.1 hPa NNE 4.8 km/h 4.8 km/h 77% 0 mm
23:53 17.2 °C 13.2 °C 1014.1 hPa North 4.8 km/h 4.8 km/h 77% 0 mm
23:58 17.2 °C 13.1 °C 1014.1 hPa North 3.2 km/h 4.8 km/h 77% 0 mm
Compliments of Weather Underground